Terminal Aerodrome Forecast
Issued by NWS

Home | Current Version | Previous Version | Graphics & Text | Print | Product List | Glossary On
Versions: 1 2 3 4 5 6 7 8 9 10 11 12 13 14 15 16 17 18 19 20 21 22 23 24 25 26 27
000
FTUS45 KGGW 240100 AAA
TAFOLF
TAF AMD
KOLF 240112Z 2401/2424 31008KT P6SM BKN060
     FM240900 VRB04KT 5SM BR BKN005
     FM241400 27009KT P6SM BKN025=

USA.gov is the U.S. government's official web portal to all federal, state and local government web resources and services.